(140676) = 2001 UY51

Discovered at Socorro on 2001-10-17 by LINEAR.

Orbit

Orbit type: Main Belt

Note: WebGL enabled browser required.

epoch2024-03-31.0
epoch JD2460400.5
perihelion date2023-05-16.98542
perihelion JD2460081.48543
argument of perihelion (°)1.60650
ascending node (°)55.26720
inclination (°)2.89671
eccentricity0.0778602
perihelion distance (AU)2.8168061
Tisserand w.r.t. Jupiter3.2
ΔV w.r.t. Earth (km/sec)10.5
semimajor axis (AU)3.0546412
mean anomaly (°)58.89444
mean daily motion (°/day)0.18461360
aphelion distance (AU)3.292
period (years)5.34
P-vector [x]0.54651595
P-vector [y]0.76777950
P-vector [z]0.33441734
Q-vector [x]-0.83641825
Q-vector [y]0.48062994
Q-vector [z]0.26343760
absolute magnitude15.66
phase slope0.15
uncertainty0
referenceE2024-GD4
observations used706
oppositions19
arc length (days)11792
first opposition used1991
last opposition used2024
residual rms (arc-secs)0.77
perturbers coarse indicatorM-v
perturbers precise indicator003Ek
first observation date used1991-12-27.0
last observation date used2024-04-09.0
computer nameMPCLINUX
JD of orbit computation2456937.371645
perihelion JD uncertainty (days)1.6026E-04
argument of perihelion uncertainty (°)9.0805E-05
ascending node uncertainty (°)8.5447E-05
inclination uncertainty (°)4.1686E-06
eccentricity uncertainty 4.2595E-08
perihelion distance uncertainty (AU)1.2957E-07
Minimum Orbit Intersection Distances (in AU)
for orbit epoch: 2460400.5, reference: E2024-GD4
Mercury2.50359
Venus2.09494
Earth1.82891
Mars1.27699
Jupiter1.97731
Saturn6.1715
Uranus15.2917
Neptune26.9694

Observations

716 total observations over interval: 1991 12 27.29989 – 2024 01 19.185628
These data are available for download (format description).

Date (UT) J2000 RA J2000 Dec Magn Location Ref
1991 12 27.29989 07 43 46.69 +24 44 11.8 20.7 V 691 – Steward Observatory, Kitt Peak-Spacewatch MPS 110717
1991 12 27.32224 07 43 45.58 +24 44 15.6   691 – Steward Observatory, Kitt Peak-Spacewatch MPS 110717
1991 12 27.34472 07 43 44.47 +24 44 19.2   691 – Steward Observatory, Kitt Peak-Spacewatch MPS 110717
1993 04 14.24256 12 46 58.22 -02 06 29.5 20.2 V 691 – Steward Observatory, Kitt Peak-Spacewatch MPS 78138
1993 04 14.27448 12 46 56.79 -02 06 22.4 20.8 V 691 – Steward Observatory, Kitt Peak-Spacewatch MPS 78138
1993 04 14.30670 12 46 55.34 -02 06 15.1 20.5 V 691 – Steward Observatory, Kitt Peak-Spacewatch MPS 78138
2001 10 17.33703 02 55 47.03 +15 23 52.0 19.2   704 – Lincoln Laboratory ETS, New Mexico MPS 41086
2001 10 17.35238 02 55 46.42 +15 23 50.3 19.5   704 – Lincoln Laboratory ETS, New Mexico MPS 41086
2001 10 17.36794 02 55 45.67 +15 23 48.5 19.7   704 – Lincoln Laboratory ETS, New Mexico MPS 41086
2001 10 17.38491 02 55 44.99 +15 23 46.3 20.2   704 – Lincoln Laboratory ETS, New Mexico MPS 41086
2001 10 20.35021 02 53 37.85 +15 16 52.1 18.6   704 – Lincoln Laboratory ETS, New Mexico MPS 41086
2001 10 20.38291 02 53 36.32 +15 16 47.6 18.8   704 – Lincoln Laboratory ETS, New Mexico MPS 41086
2001 10 20.39927 02 53 35.57 +15 16 45.3 18.9   704 – Lincoln Laboratory ETS, New Mexico MPS 41086
2001 10 20.41581 02 53 34.79 +15 16 43.3 19.1   704 – Lincoln Laboratory ETS, New Mexico MPS 41086
2001 10 22.29269 02 52 10.42 +15 12 04.0 19.5   704 – Lincoln Laboratory ETS, New Mexico MPS 41086
2001 10 22.30973 02 52 09.65 +15 12 01.4 20.0   704 – Lincoln Laboratory ETS, New Mexico MPS 41086
2001 10 22.32722 02 52 08.86 +15 11 59.7 19.3   704 – Lincoln Laboratory ETS, New Mexico MPS 41086
2001 10 22.36020 02 52 07.24 +15 11 54.8 19.8   704 – Lincoln Laboratory ETS, New Mexico MPS 41086
2001 10 23.34359 02 51 21.70 +15 09 23.1 19.8   704 – Lincoln Laboratory ETS, New Mexico MPS 41086
2001 10 23.35998 02 51 21.03 +15 09 22.4 19.9   704 – Lincoln Laboratory ETS, New Mexico MPS 41086
2001 10 23.37638 02 51 20.18 +15 09 17.6 20.2   704 – Lincoln Laboratory ETS, New Mexico MPS 41086
2001 10 23.39278 02 51 19.42 +15 09 15.4 20.0   704 – Lincoln Laboratory ETS, New Mexico MPS 41086
2001 10 24.32854 02 50 35.54 +15 06 50.2 19.9   704 – Lincoln Laboratory ETS, New Mexico MPS 41086
2001 10 24.34492 02 50 34.76 +15 06 47.5 19.5   704 – Lincoln Laboratory ETS, New Mexico MPS 41086
2001 10 24.36132 02 50 33.95 +15 06 44.8 19.8   704 – Lincoln Laboratory ETS, New Mexico MPS 41086
2001 10 24.37770 02 50 33.12 +15 06 42.5 20.1   704 – Lincoln Laboratory ETS, New Mexico MPS 41086
2001 10 24.39409 02 50 32.34 +15 06 39.2 19.9   704 – Lincoln Laboratory ETS, New Mexico MPS 41086
2001 10 25.36010 02 49 46.47 +15 04 07.5 19.4   644 – Palomar Mountain/NEAT MPS 41086
2001 10 25.38129 02 49 45.42 +15 04 03.9 19.8   644 – Palomar Mountain/NEAT MPS 41086
2001 10 25.40232 02 49 44.38 +15 04 00.4 19.8   644 – Palomar Mountain/NEAT MPS 41086
2001 10 26.30869 02 49 00.80 +15 01 34.1 19.4   704 – Lincoln Laboratory ETS, New Mexico MPS 41086
2001 10 26.32542 02 48 59.95 +15 01 31.8 19.2   704 – Lincoln Laboratory ETS, New Mexico MPS 41086
2001 10 26.35848 02 48 58.37 +15 01 27.2 19.7   704 – Lincoln Laboratory ETS, New Mexico MPS 41086
2001 10 26.37505 02 48 57.44 +15 01 23.9 19.9   704 – Lincoln Laboratory ETS, New Mexico MPS 41086
2001 11 09.29051 02 37 16.36 +14 21 44.9 19.6   704 – Lincoln Laboratory ETS, New Mexico MPS 41086
2001 11 09.30496 02 37 15.60 +14 21 42.2 19.6   704 – Lincoln Laboratory ETS, New Mexico MPS 41086
2001 11 09.31953 02 37 14.99 +14 21 39.4 19.6   704 – Lincoln Laboratory ETS, New Mexico MPS 41086
2001 11 09.33399 02 37 14.22 +14 21 36.7 19.8   704 – Lincoln Laboratory ETS, New Mexico MPS 41086
2001 11 09.34848 02 37 13.46 +14 21 34.1 19.6   704 – Lincoln Laboratory ETS, New Mexico MPS 41086
2001 11 15.28006 02 32 21.32 +14 04 56.1 20.2 V 691 – Steward Observatory, Kitt Peak-Spacewatch MPS 42080
2001 11 15.30186 02 32 20.23 +14 04 52.4 19.8 V 691 – Steward Observatory, Kitt Peak-Spacewatch MPS 42080
2001 11 15.32398 02 32 19.14 +14 04 49.0 19.8 V 691 – Steward Observatory, Kitt Peak-Spacewatch MPS 42080
2001 11 17.22235 02 30 49.90 +13 59 46.6 19.9   704 – Lincoln Laboratory ETS, New Mexico MPS 42080
2001 11 17.23670 02 30 49.27 +13 59 45.0 20.4   704 – Lincoln Laboratory ETS, New Mexico MPS 42080
2001 11 17.26546 02 30 47.77 +13 59 40.1 20.8   704 – Lincoln Laboratory ETS, New Mexico MPS 42080
2001 11 20.23116 02 28 33.76 +13 52 12.2 20.8   704 – Lincoln Laboratory ETS, New Mexico MPS 44455
2001 11 20.24605 02 28 33.13 +13 52 09.9 21.0   704 – Lincoln Laboratory ETS, New Mexico MPS 44455
2001 11 20.26074 02 28 32.41 +13 52 08.2 20.4   704 – Lincoln Laboratory ETS, New Mexico MPS 44455
2001 11 20.27544 02 28 31.73 +13 52 05.0 20.3   704 – Lincoln Laboratory ETS, New Mexico MPS 44455
2001 11 21.15751 02 27 53.52 +13 49 58.7 19.3   704 – Lincoln Laboratory ETS, New Mexico MPS 49584
2001 11 21.17212 02 27 52.90 +13 49 56.7 19.7   704 – Lincoln Laboratory ETS, New Mexico MPS 49584
2001 11 21.18675 02 27 52.23 +13 49 54.7 20.0   704 – Lincoln Laboratory ETS, New Mexico MPS 49584
2001 11 21.20138 02 27 51.57 +13 49 52.2 20.0   704 – Lincoln Laboratory ETS, New Mexico MPS 49584
2001 11 21.21615 02 27 50.92 +13 49 50.4 19.8   704 – Lincoln Laboratory ETS, New Mexico MPS 49584
2001 12 11.21454 02 17 22.49 +13 20 12.8 19.2   704 – Lincoln Laboratory ETS, New Mexico MPS 44455
2001 12 11.24499 02 17 21.94 +13 20 13.0 20.2   704 – Lincoln Laboratory ETS, New Mexico MPS 44455
2001 12 11.26023 02 17 21.60 +13 20 13.0 20.1   704 – Lincoln Laboratory ETS, New Mexico MPS 44455
2001 12 11.27546 02 17 21.35 +13 20 13.0 20.1   704 – Lincoln Laboratory ETS, New Mexico MPS 44455
2003 01 26.32126 09 42 52.97 +18 12 13.3 19.3 R 699 – Lowell Observatory-LONEOS MPS 71561
2003 01 26.33744 09 42 52.19 +18 12 20.1   699 – Lowell Observatory-LONEOS MPS 71561
2003 01 26.35366 09 42 51.53 +18 12 22.8   699 – Lowell Observatory-LONEOS MPS 71561
2003 01 26.36983 09 42 50.69 +18 12 26.2   699 – Lowell Observatory-LONEOS MPS 71561
2003 01 27.31450 09 42 07.73 +18 16 36.9 19.7   704 – Lincoln Laboratory ETS, New Mexico MPS 71561
2003 01 27.34522 09 42 06.17 +18 16 44.3 19.9   704 – Lincoln Laboratory ETS, New Mexico MPS 71561
2003 01 27.37630 09 42 04.77 +18 16 52.4 19.7   704 – Lincoln Laboratory ETS, New Mexico MPS 71561
2003 02 02.31302 09 37 20.74 +18 43 01.3 20.0   644 – Palomar Mountain/NEAT MPS 73260
2003 02 02.39100 09 37 16.83 +18 43 22.3 20.3   644 – Palomar Mountain/NEAT MPS 73260
2003 02 02.45364 09 37 13.59 +18 43 38.2 20.8   644 – Palomar Mountain/NEAT MPS 73260
2003 02 04.32122 09 35 40.65 +18 51 45.5 19.3   704 – Lincoln Laboratory ETS, New Mexico MPS 73260
2003 02 04.33760 09 35 39.79 +18 51 49.9 19.3   704 – Lincoln Laboratory ETS, New Mexico MPS 73260
2003 02 04.35178 09 35 39.04 +18 51 53.0 19.5   704 – Lincoln Laboratory ETS, New Mexico MPS 73260
2003 02 04.36607 09 35 38.28 +18 51 56.5 19.2   704 – Lincoln Laboratory ETS, New Mexico MPS 73260
2003 02 04.38018 09 35 37.52 +18 51 59.6 19.5   704 – Lincoln Laboratory ETS, New Mexico MPS 73260
2003 02 19.28408 09 23 09.55 +19 49 55.6 20.4   644 – Palomar Mountain/NEAT MPS 74093
2003 02 19.30532 09 23 08.51 +19 49 59.6 19.6   644 – Palomar Mountain/NEAT MPS 74093
2003 02 19.32716 09 23 07.42 +19 50 04.1 20.0   644 – Palomar Mountain/NEAT MPS 74093
2004 04 24.28555 14 21 16.38 -12 37 01.5 20.0 V 691 – Steward Observatory, Kitt Peak-Spacewatch MPS 110288
2004 04 24.32145 14 21 14.63 -12 36 54.1 20.2 V 691 – Steward Observatory, Kitt Peak-Spacewatch MPS 110288
2004 04 24.37970 14 21 11.79 -12 36 42.5 20.3 V 691 – Steward Observatory, Kitt Peak-Spacewatch MPS 110288
2004 05 14.21962 14 06 10.51 -11 34 31.7 20.6 V 691 – Steward Observatory, Kitt Peak-Spacewatch MPS 110288
2004 05 14.24883 14 06 09.27 -11 34 26.6 20.7 V 691 – Steward Observatory, Kitt Peak-Spacewatch MPS 110288
2004 05 14.28329 14 06 07.83 -11 34 21.1 20.7 V 691 – Steward Observatory, Kitt Peak-Spacewatch MPS 110288
2006 09 18.27380 00 49 33.81 +01 43 25.3 19.2 V 703 – Catalina Sky Survey MPS 179146
2006 09 18.28095 00 49 33.52 +01 43 21.9 19.2 V 703 – Catalina Sky Survey MPS 179146
